Date String (YYYY-MM-DD hh:mm:ss) UTC,Instrument flags,absolute air pressure of the measurement (hPa),sample flow rate (lpm),inlet stack bypass flow (lpm),air temperature of the measurement (°C),ambient temperature measured by the external sensor (°C),aerosol sample conditioner tube jacket temperature (°C),OPC LED temperature (°C),internal box temperature (°C),relative humidity of the measurement (%),span deviation,mass concentration of particles derived from Lorenz-Mie calculation of OPC scattering (μg/m³),mass concentration of particles derived from Lorenz-Mie calculation of OPC scattering (μg/m³),mass concentration of particles derived from Lorenz-Mie calculation of OPC scattering (μg/m³)
DateTimeUTC,F1_M11,P_M11,Q1_M11,Q2_M11,T1_M11,T2_M11,T3_M11,T4_M11,T5_M11,U1_M11,ZSPAN_M11,X0_M11,X2_M11,X1_M11
2024-03-13 21:00:00,SystemResetWarning,0820.0,5.00,000.00,021.4,020.8,000.0,029.8,023.2,23.5,0000.0,0009.33,0004.01,0003.44
2024-03-13 21:01:00,SystemResetWarning,0820.0,5.00,000.00,021.4,020.8,000.0,029.8,023.2,23.2,0000.0,0009.25,0003.99,0003.44
2024-03-13 21:02:00,SystemResetWarning,0819.9,4.99,000.00,021.4,020.8,000.0,029.8,023.2,23.4,0000.0,0009.75,0004.01,0003.42
2024-03-13 21:03:00,SystemResetWarning,0819.8,5.00,000.00,021.4,020.8,000.0,029.8,023.2,23.1,0000.0,0010.13,0004.03,0003.44
2024-03-13 21:04:00,SystemResetWarning,0819.9,5.00,000.00,021.4,020.7,000.0,029.8,023.2,22.8,0000.0,0010.16,0004.08,0003.48
2024-03-13 21:05:00,SystemResetWarning,0819.9,5.01,000.00,021.4,020.7,000.0,029.8,023.2,23.0,0000.0,0010.04,0004.06,0003.49
2024-03-13 21:06:00,SystemResetWarning,0819.9,5.01,000.00,021.4,020.7,000.0,029.8,023.2,23.2,0000.0,0010.06,0004.11,0003.51
2024-03-13 21:07:00,SystemResetWarning,0819.9,5.00,000.00,021.4,020.7,000.0,029.8,023.2,23.1,0000.0,0010.08,0004.13,0003.55
2024-03-13 21:08:00,SystemResetWarning,0819.8,5.00,000.00,021.4,020.7,000.0,029.8,023.2,23.2,0000.0,0009.96,0004.20,0003.59
2024-03-13 21:09:00,SystemResetWarning,0819.9,5.00,000.00,021.4,020.8,000.0,029.8,023.2,23.4,0000.0,0009.81,0004.27,0003.62
2024-03-13 21:10:00,SystemResetWarning,0819.9,4.99,000.00,021.4,020.8,000.0,029.8,023.2,23.7,0000.0,0009.73,0004.29,0003.66
2024-03-13 21:11:00,SystemResetWarning,0820.0,4.99,000.00,021.4,020.8,000.0,029.8,023.2,23.7,0000.0,0009.82,0004.36,0003.72
2024-03-13 21:12:00,SystemResetWarning,0820.0,5.00,000.00,021.4,020.8,000.0,029.9,023.2,23.8,0000.0,0009.16,0004.42,0003.79
2024-03-13 21:13:00,SystemResetWarning,0819.9,5.01,000.00,021.4,020.8,000.0,029.9,023.2,24.0,0000.0,0008.83,0004.49,0003.86
2024-03-13 21:14:00,SystemResetWarning,0820.0,5.01,000.00,021.4,020.8,000.0,029.9,023.3,24.5,0000.0,0008.64,0004.58,0003.90
2024-03-13 21:15:00,SystemResetWarning,0819.9,4.99,000.00,021.4,020.8,000.0,029.9,023.3,24.5,0000.0,0008.73,0004.58,0003.90
2024-03-13 21:16:00,SystemResetWarning,0820.1,4.99,000.00,021.4,020.8,000.0,029.9,023.3,23.9,0000.0,0009.71,0004.66,0003.91
2024-03-13 21:17:00,SystemResetWarning,0820.0,4.99,000.00,021.5,020.8,000.0,029.9,023.3,23.7,0000.0,0009.83,0004.67,0003.89
2024-03-13 21:18:00,SystemResetWarning,0819.9,5.01,000.00,021.5,020.8,000.0,029.9,023.3,23.5,0000.0,0009.85,0004.64,0003.86
2024-03-13 21:19:00,SystemResetWarning,0819.9,5.01,000.00,021.5,020.8,000.0,029.9,023.3,24.1,0000.0,0009.95,0004.62,0003.84
2024-03-13 21:20:00,SystemResetWarning,0819.9,5.01,000.00,021.5,020.8,000.0,029.9,023.3,24.6,0000.0,0009.85,0004.60,0003.83
2024-03-13 21:21:00,SystemResetWarning,0820.2,4.99,000.00,021.5,020.8,000.0,029.9,023.3,24.8,0000.0,0009.82,0004.59,0003.83
2024-03-13 21:22:00,SystemResetWarning,0819.9,4.99,000.00,021.5,020.8,000.0,029.9,023.3,25.1,0000.0,0009.81,0004.59,0003.82
2024-03-13 21:23:00,SystemResetWarning,0820.2,5.00,000.00,021.5,020.9,000.0,029.9,023.3,25.3,0000.0,0009.99,0004.60,0003.80
2024-03-13 21:24:00,SystemResetWarning,0819.9,5.00,000.00,021.5,020.9,000.0,029.9,023.3,25.2,0000.0,0010.13,0004.60,0003.78
2024-03-13 21:25:00,SystemResetWarning,0820.1,5.00,000.00,021.5,020.9,000.0,029.9,023.3,24.1,0000.0,0010.12,0004.59,0003.78
2024-03-13 21:26:00,SystemResetWarning,0819.9,5.01,000.00,021.5,020.9,000.0,029.9,023.3,23.5,0000.0,0010.13,0004.58,0003.78
2024-03-13 21:27:00,SystemResetWarning,0820.0,5.00,000.00,021.5,020.9,000.0,029.9,023.3,23.6,0000.0,0009.24,0004.58,0003.80
2024-03-13 21:28:00,SystemResetWarning,0820.0,5.01,000.00,021.5,020.9,000.0,029.9,023.3,23.6,0000.0,0009.18,0004.59,0003.82
2024-03-13 21:29:00,SystemResetWarning,0820.1,5.00,000.00,021.5,020.9,000.0,029.9,023.3,24.5,0000.0,0009.31,0004.67,0003.86
2024-03-13 21:30:00,SystemResetWarning,0820.0,5.00,000.00,021.5,020.9,000.0,030.0,023.3,24.5,0000.0,0009.00,0004.65,0003.88
2024-03-13 21:31:00,SystemResetWarning,0820.1,5.00,000.00,021.5,020.9,000.0,030.0,023.4,23.8,0000.0,0008.75,0004.66,0003.90
2024-03-13 21:32:00,SystemResetWarning,0820.0,4.99,000.00,021.5,020.9,000.0,030.0,023.4,23.7,0000.0,0008.92,0004.74,0003.91
2024-03-13 21:33:00,SystemResetWarning,0820.0,5.00,000.00,021.5,020.9,000.0,030.0,023.4,24.0,0000.0,0008.96,0004.80,0003.93
2024-03-13 21:34:00,SystemResetWarning,0820.0,5.00,000.00,021.5,020.9,000.0,030.0,023.4,24.5,0000.0,0009.06,0004.84,0003.97
2024-03-13 21:35:00,SystemResetWarning,0820.3,5.01,000.00,021.6,021.0,000.0,030.0,023.4,25.4,0000.0,0008.98,0004.82,0003.98
2024-03-13 21:36:00,SystemResetWarning,0820.0,5.00,000.00,021.6,021.0,000.0,030.0,023.4,25.5,0000.0,0008.91,0004.84,0003.99
2024-03-13 21:37:00,SystemResetWarning,0819.9,4.99,000.00,021.6,021.0,000.0,030.0,023.4,25.5,0000.0,0008.92,0004.89,0004.02
2024-03-13 21:38:00,SystemResetWarning,0820.0,4.99,000.00,021.6,021.0,000.0,030.0,023.4,25.4,0000.0,0008.92,0004.89,0004.04
2024-03-13 21:39:00,SystemResetWarning,0820.3,4.99,000.00,021.6,021.0,000.0,030.0,023.4,25.1,0000.0,0008.94,0004.87,0004.05
2024-03-13 21:40:00,SystemResetWarning,0820.0,4.99,000.00,021.6,021.0,000.0,030.0,023.4,25.0,0000.0,0009.25,0004.84,0004.06
2024-03-13 21:41:00,SystemResetWarning,0820.0,5.00,000.00,021.6,021.0,000.0,030.0,023.4,25.0,0000.0,0009.76,0004.88,0004.06
2024-03-13 21:42:00,SystemResetWarning,0819.9,5.02,000.00,021.6,021.0,000.0,030.0,023.4,24.8,0000.0,0010.78,0004.90,0004.06
2024-03-13 21:43:00,SystemResetWarning,0819.9,4.99,000.00,021.6,021.0,000.0,030.0,023.4,24.8,0000.0,0010.65,0004.83,0004.05
2024-03-13 21:44:00,SystemResetWarning,0820.0,4.99,000.00,021.6,021.0,000.0,030.0,023.4,24.7,0000.0,0010.75,0004.77,0004.02
2024-03-13 21:45:00,SystemResetWarning,0820.0,5.00,000.00,021.6,021.0,000.0,030.0,023.5,24.9,0000.0,0010.59,0004.73,0004.00
2024-03-13 21:46:00,SystemResetWarning,0819.9,5.01,000.00,021.6,021.0,000.0,030.0,023.5,25.2,0000.0,0010.41,0004.72,0003.98
2024-03-13 21:47:00,SystemResetWarning,0819.9,5.01,000.00,021.6,021.1,000.0,030.1,023.5,24.9,0000.0,0010.32,0004.69,0003.98
2024-03-13 21:48:00,SystemResetWarning,0819.9,5.00,000.00,021.6,021.1,000.0,030.1,023.5,25.2,0000.0,0010.30,0004.67,0003.97
2024-03-13 21:49:00,SystemResetWarning,0819.9,5.00,000.00,021.7,021.1,000.0,030.1,023.5,24.8,0000.0,0010.76,0004.69,0003.98
2024-03-13 21:50:00,SystemResetWarning,0819.9,5.00,000.00,021.7,021.1,000.0,030.1,023.5,24.6,0000.0,0010.83,0004.72,0003.98
2024-03-13 21:51:00,SystemResetWarning,0820.0,5.00,000.00,021.7,021.1,000.0,030.1,023.5,24.4,0000.0,0010.65,0004.77,0003.99
2024-03-13 21:52:00,SystemResetWarning,0820.0,5.00,000.00,021.7,021.1,000.0,030.1,023.5,24.3,0000.0,0010.87,0004.75,0003.97
2024-03-13 21:53:00,SystemResetWarning,0820.1,5.00,000.00,021.7,021.1,000.0,030.1,023.5,24.3,0000.0,0009.85,0004.71,0003.97
2024-03-13 21:54:00,SystemResetWarning,0820.0,5.00,000.00,021.7,021.1,000.0,030.1,023.5,24.2,0000.0,0010.30,0004.74,0003.97
2024-03-13 21:55:00,SystemResetWarning,0820.1,5.00,000.00,021.7,021.1,000.0,030.1,023.5,24.1,0000.0,0010.24,0004.76,0003.98
2024-03-13 21:56:00,SystemResetWarning,0820.0,5.00,000.00,021.7,021.1,000.0,030.1,023.5,24.2,0000.0,0010.21,0004.78,0004.00
2024-03-13 21:57:00,SystemResetWarning,0820.0,5.01,000.00,021.7,021.1,000.0,030.1,023.5,24.4,0000.0,0010.46,0004.79,0004.01
2024-03-13 21:58:00,SystemResetWarning,0820.0,5.01,000.00,021.7,021.1,000.0,030.1,023.5,24.3,0000.0,0010.64,0004.82,0004.01
2024-03-13 21:59:00,SystemResetWarning,0820.0,5.00,000.00,021.7,021.1,000.0,030.1,023.5,24.4,0000.0,0011.22,0004.81,0004.00
